Montreal Mirabel, Quebec

4:02 AM EDT on October 17, 2017 (GMT -0400)
Montreal Mirabel

Weather History for CYMX - September, 2012

Change the Weather History Date:

Saturday, September 15, 2012

  Actual Average Record
Temperature  
Mean Temperature 53 °F -  
Max Temperature 62 °F 67 °F 78 °F (2003)
Min Temperature 44 °F 49 °F 37 °F (2001)
Degree Days  
Heating Degree Days 12    
Growing Degree Days 3 (Base 50)    
Moisture  
Dew Point 49 °F    
Average Humidity 78    
Maximum Humidity 100    
Minimum Humidity 55    
Precipitation  
Precipitation 0.00 in - - ()
Sea Level Pressure  
Sea Level Pressure 30.07 in    
Wind  
Wind Speed 7 mph ()    
Max Wind Speed 14 mph    
Max Gust Speed 21 mph    
Visibility 12.0 miles    
Events Rain    
Averages and records for this station are not official NWS values.
T = Trace of Precipitation, MM = Missing Value Source: Averaged Metar Reports

Daily Weather History Graph

Daily Weather History Graph

Search for Another Location

Airport or City:

Trip Planner

Search our weather history database for the weather conditions in past years. The results will help you decide how hot, cold, wet, or windy it might be!

Date:

Astronomy

Sep. 15, 2012 Rise Set
Actual Time 6:35 AM EDT 7:06 PM EDT
Civil Twilight 6:05 AM EDT 7:36 PM EDT
Nautical Twilight 5:29 AM EDT 8:11 PM EDT
Astronomical Twilight 4:53 AM EDT 8:47 PM EDT
Moon 6:04 AM EDT (9/15) 6:32 PM EDT (9/15)
Length of Visible Light 13h 31m
Length of Day
12h 31m
Waning Crescent, 0% of the Moon is Illuminated
Sep 15
Waning Crescent
Sep 15
New
Sep 22
First Quarter
Sep 29
Full
Oct 8
Last Quarter

Hourly Weather History & Observations

Time (EDT) Temp. Windchill Dew Point Humidity Pressure Visibility Wind Dir Wind Speed Gust Speed Precip Events Conditions
12:00 AM 57.2 °F - 57.2 °F 100% 30.01 in 15.0 mi SSW 6.9 mph - N/A Rain Light Rain Showers
1:00 AM 59.0 °F - 57.2 °F 94% 30.00 in 8.0 mi SSW 13.8 mph - N/A Rain Light Rain Showers
1:37 AM 57.2 °F - 55.4 °F 94% 30.00 in 15.0 mi WSW 8.1 mph 19.6 mph N/A   Overcast
2:00 AM 57.2 °F - 55.4 °F 94% 30.00 in 15.0 mi SW 10.4 mph - N/A   Overcast
3:00 AM 57.2 °F - 55.4 °F 94% 29.99 in 25.0 mi SW 6.9 mph - N/A   Overcast
4:00 AM 57.2 °F - 55.4 °F 94% 29.98 in 25.0 mi WSW 9.2 mph - N/A   Overcast
4:56 AM 55.4 °F - 53.6 °F 94% 29.99 in 5.0 mi WSW 8.1 mph - N/A Rain Light Rain Showers
5:00 AM 55.4 °F - 53.6 °F 94% 29.99 in 6.0 mi WSW 4.6 mph - N/A Rain Light Rain Showers
6:00 AM 55.4 °F - 53.6 °F 94% 30.00 in 25.0 mi West 5.8 mph - N/A Rain Light Rain Showers
6:50 AM 53.6 °F - 50.0 °F 88% 30.04 in 25.0 mi WNW 6.9 mph - N/A   Mostly Cloudy
7:00 AM 53.6 °F - 50.0 °F 88% 30.04 in 25.0 mi West 4.6 mph - N/A   Mostly Cloudy
8:00 AM 55.4 °F - 50.0 °F 82% 30.08 in 25.0 mi WNW 5.8 mph - N/A   Mostly Cloudy
9:00 AM 57.2 °F - 50.0 °F 77% 30.11 in 25.0 mi West 5.8 mph - N/A   Partly Cloudy
10:00 AM 57.2 °F - 48.2 °F 72% 30.12 in 45.0 mi West 9.2 mph - N/A   Scattered Clouds
11:00 AM 59.0 °F - 48.2 °F 67% 30.12 in 45.0 mi NW 11.5 mph 19.6 mph N/A   Mostly Cloudy
12:00 PM 60.8 °F - 44.6 °F 55% 30.12 in 45.0 mi NNW 11.5 mph 19.6 mph N/A   Mostly Cloudy
1:00 PM 59.0 °F - 44.6 °F 59% 30.12 in 45.0 mi NW 12.7 mph - N/A   Mostly Cloudy
2:00 PM 62.6 °F - 46.4 °F 55% 30.10 in 45.0 mi NW 9.2 mph - N/A   Mostly Cloudy
2:39 PM 59.0 °F - 44.6 °F 59% 30.10 in 45.0 mi WNW 13.8 mph 19.6 mph N/A Rain Light Rain Showers
3:00 PM 55.4 °F - 50.0 °F 82% 30.10 in 45.0 mi West 6.9 mph - N/A Rain Light Rain Showers
4:00 PM 59.0 °F - 48.2 °F 67% 30.09 in 40.0 mi NNW 13.8 mph 20.7 mph N/A Rain Light Rain Showers
4:30 PM 59.0 °F - 46.4 °F 63% 30.08 in 40.0 mi NW 6.9 mph - N/A   Mostly Cloudy
5:00 PM 59.0 °F - 46.4 °F 63% 30.08 in 40.0 mi NW 10.4 mph 17.3 mph N/A   Mostly Cloudy
6:00 PM 57.2 °F - 44.6 °F 63% 30.09 in 45.0 mi WNW 5.8 mph - N/A   Scattered Clouds
7:00 PM 55.4 °F - 42.8 °F 63% 30.09 in 45.0 mi WNW 4.6 mph - N/A   Scattered Clouds
8:00 PM 51.8 °F - 42.8 °F 71% 30.10 in 20.0 mi WNW 4.6 mph - N/A   Partly Cloudy
9:00 PM 50.0 °F - 42.8 °F 76% 30.10 in 25.0 mi NW 5.8 mph - N/A   Partly Cloudy
10:00 PM 44.6 °F 43.1 °F 41.0 °F 87% 30.12 in 25.0 mi WSW 3.5 mph - N/A   Partly Cloudy
11:00 PM 44.6 °F 42.2 °F 41.0 °F 87% 30.13 in 25.0 mi West 4.6 mph - N/A   Clear